Вернуться в каталог

CZ-2D R/B

АктивенSSO
NORAD 37932·ROCKET BODY·🇨🇳 China

Запущен Nov 20, 2011 с Jiuquan Satellite Launch Center

Loading…

Ближайшие Пролёты (ближайшие 24 часа)

TLE

СвежийSource: Space-Track

Эпоха: Sep 14, 2026, 15:39 UTC

1 37932U 11068C   26257.65219932  .00000091  00000-0  60101-4 0  9991
2 37932  98.9001 214.0641 0036727   3.2417 169.4719 14.23046442769204

Отслеживайте CZ-2D R/B в реальном времени с AllMySat

Download on the App Store